User: anonymous   Login
Location: Iesi
(43.5167°N, 13.2333°E)
Time: 17:50:13
(UTC+00:00)
Language:

Tsikada Rocket - Orbit

View from above orbital plane
View from above orbital plane
View from above satellite
View from above satellite

Ground track
Ground track

The orbit data is extracted from the following two-line orbital elements,

1 23466U 95002D   20297.90975470 -.00000046 +00000-0 -64590-4 0  9998
2 23466 082.9237 077.0607 0035183 029.6759 084.3652 13.74431300291263
Epoch (UTC): 23 October 2020 21:50:02
Eccentricity: 0.0035183
inclination: 82.9237°
perigee height: 958 km
apogee height: 1009 km
right ascension of ascending node: 77.0607°
argument of perigee: 29.6759°
revolutions per day: 13.74431300
mean anomaly at epoch: 84.3652°
orbit number at epoch: 29126

The dashed part of the orbit path shows where the satellite is in the earth's shadow,  

DLR